Wind_Speed
9 11 12 13 15 16 17 18 20 22 23 23 24 24 25 25 25 25 26 27 28 29 31 33 33 33 33 32 32 32 32 32 33 33 33 32 32 32 31 32 32 31 30 28 27 26 26 26 25 24 24 24 24 23 23 22 21 21 21 20 20 20 20 21 20 20 19 19 18 18 18 17 16 15 14 14 13 13 12 10 9 10 10 9 8
7 9 11 11 12 14 16 16 18 21 22 22 23 24 24 25 26 26 26 27 28 28 30 32 33 34 33 33 32 31 31 31 31 32 32 32 32 32 31 31 32 32 31 31 31 31 30 30 30 29 29 29 28 28 27 26 25 24 23 23 22 22 22 21 20 20 19 18 17 17 17 17 16 15 15 16 16 16 15 14 13 13 11 9 7
6 7 9 10 10 12 14 15 16 18 20 21 22 23 23 24 25 26 26 26 27 28 29 30 32 33 33 33 33 32 32 31 30 30 30 31 31 31 31 31 31 30 30 31 31 30 30 30 30 30 29 29 28 28 27 26 25 24 23 23 22 22 22 22 21 20 20 19 18 18 18 17 17 16 17 18 18 18 18 16 15 13 11 9 7
3 5 6 8 8 10 12 14 14 16 18 20 21 22 22 23 25 26 27 27 27 27 28 29 31 32 33 33 33 33 33 32 31 30 30 29 30 30 30 30 30 30 30 30 30 29 29 29 29 28 28 27 27 27 26 26 25 24 24 23 23 23 24 23 23 23 23 22 21 21 21 20 19 19 19 19 19 19 18 17 15 13 11 9 8
1 2 3 5 6 7 10 12 13 14 16 18 19 20 21 22 24 25 26 27 27 27 27 28 30 31 32 33 33 34 34 33 33 32 31 30 29 29 29 29 28 28 28 28 28 28 28 28 28 27 27 27 26 26 25 25 25 24 23 23 23 23 23 23 23 23 23 22 22 22 22 22 21 21 20 20 19 19 18 16 14 13 11 10 8
2 1 0 3 4 4 7 10 11 12 14 16 18 19 20 20 22 23 24 26 26 26 27 27 29 30 31 32 33 34 34 34 34 33 32 31 31 30 29 28 28 28 27 27 27 27 27 27 26 26 25 25 24 24 23 23 23 22 21 22 22 22 21 21 21 21 21 21 20 20 21 21 21 20 20 19 18 18 16 15 13 12 11 10 9
4 3 2 3 2 2 5 7 9 10 11 14 16 18 19 19 20 21 22 24 25 25 26 26 28 29 30 31 32 33 33 34 34 34 34 33 32 31 30 30 29 28 28 27 27 27 26 26 25 24 24 23 22 21 21 21 20 20 19 20 20 20 20 19 19 19 19 19 19 19 19 19 19 19 19 18 18 17 15 14 13 12 11 11 11
7 5 4 4 3 2 3 5 7 8 9 11 13 16 17 18 18 19 20 22 23 24 24 25 26 28 29 30 31 31 32 33 34 34 34 34 33 33 32 31 30 29 28 28 28 27 26 26 25 24 23 22 21 20 19 19 19 18 18 18 18 19 18 18 18 18 18 18 18 18 17 17 18 18 18 17 16 15 14 13 12 12 11 11 11
9 7 7 7 5 4 3 4 5 7 8 9 11 13 15 16 16 17 18 20 21 22 23 23 24 26 28 29 30 30 30 31 33 33 34 33 33 33 33 32 31 30 29 28 28 27 27 26 25 24 23 22 21 20 20 19 19 18 18 18 18 18 17 17 17 17 17 17 16 16 16 16 16 16 16 15 15 14 13 12 11 11 10 10 10
12 9 8 8 8 6 5 4 5 6 7 8 9 11 13 14 15 15 16 17 19 20 21 22 23 24 26 28 29 29 29 30 31 31 32 33 33 33 33 32 31 30 29 29 28 28 27 26 25 25 24 23 22 22 21 20 20 19 18 18 18 17 17 17 16 16 16 15 15 15 15 15 15 15 14 14 13 12 11 11 10 10 9 9 10
14 11 9 10 10 8 7 5 5 5 6 8 8 8 10 11 13 14 14 14 16 17 18 19 21 22 24 26 27 28 29 29 29 30 31 31 32 32 32 32 31 30 30 29 28 28 27 26 26 25 25 25 24 23 22 22 21 20 19 18 18 17 17 17 16 16 15 15 14 14 14 14 14 13 13 12 11 11 10 10 9 9 10 10 10
17 14 11 11 11 10 9 8 6 6 6 7 8 7 8 9 10 11 12 12 13 15 16 17 18 20 21 23 24 26 28 28 29 29 29 30 30 31 31 31 31 30 30 30 29 28 28 27 27 27 27 26 26 25 24 23 23 22 20 19 18 17 17 16 16 15 15 14 14 14 13 13 12 12 11 11 10 10 10 9 9 9 10 10 11
20 16 13 13 13 12 11 10 8 7 6 6 7 7 7 7 7 8 9 10 11 12 14 15 16 17 18 19 21 23 25 26 27 27 27 28 29 29 29 30 30 30 30 30 30 30 29 29 28 28 28 28 27 27 26 26 25 24 23 22 20 19 18 17 16 15 15 14 14 13 13 12 12 11 11 10 10 10 10 10 10 10 11 11 12
23 19 16 16 16 14 13 13 10 8 7 6 6 7 7 6 5 6 7 8 9 10 11 12 13 14 16 17 18 19 21 22 24 25 25 26 27 27 28 28 29 29 30 30 30 30 31 30 30 30 29 29 29 28 28 27 27 26 25 24 23 22 21 19 18 17 16 15 15 14 14 13 13 12 12 11 11 11 11 11 12 12 13 13 14
25 21 18 18 18 17 15 14 12 10 8 6 6 5 6 6 5 5 5 6 6 7 8 9 11 12 13 15 16 16 17 19 20 21 23 24 24 25 25 27 28 29 29 30 30 30 31 31 31 30 30 30 30 29 29 28 28 27 27 26 25 24 23 22 21 20 20 19 18 17 17 16 15 15 14 14 14 14 14 14 15 15 16 16 17
27 24 21 20 20 19 17 14 13 12 10 8 7 7 6 5 5 4 4 4 4 5 6 7 8 9 10 12 14 15 15 16 16 18 19 21 21 22 23 24 26 27 29 29 30 30 30 30 31 30 30 30 30 29 29 29 28 28 27 27 26 25 24 24 23 23 23 22 22 21 21 20 20 19 18 18 17 17 17 17 18 18 19 19 20
28 26 24 23 22 22 20 17 15 14 13 11 11 10 8 6 5 4 4 3 3 3 4 5 6 7 8 9 11 13 14 15 15 15 16 18 19 20 21 22 24 25 27 28 29 29 30 30 30 29 29 29 29 29 29 28 28 28 27 27 27 27 26 26 25 25 25 25 25 25 25 24 24 24 23 22 21 21 20 20 21 21 22 22 23
30 28 27 26 25 24 23 20 17 16 15 14 14 13 11 9 7 6 4 4 3 2 1 3 4 5 6 7 8 10 12 14 15 15 15 16 17 18 19 20 22 22 24 25 27 27 28 28 28 28 28 28 28 28 28 28 28 28 27 27 27 27 27 27 27 27 27 28 28 28 28 28 27 27 26 26 25 24 24 24 24 25 26 26 27
32 31 29 28 27 27 26 23 21 19 17 16 15 15 14 12 10 9 7 5 4 4 2 1 2 3 4 5 5 7 9 12 14 15 15 15 16 17 17 18 19 20 21 22 23 25 26 26 27 27 27 27 27 27 27 27 27 27 27 28 27 27 28 28 28 29 29 29 30 30 30 30 30 29 29 28 28 28 28 28 28 29 30 30 31
35 33 32 31 30 29 29 27 25 22 20 18 16 15 15 14 13 11 10 9 8 7 5 4 3 2 2 3 3 3 6 9 11 13 14 14 15 16 16 16 16 17 18 19 20 21 23 23 24 25 25 26 26 26 26 26 26 27 27 27 27 27 28 28 28 29 30 30 31 31 31 31 31 31 30 30 30 30 30 30 31 31 32 33 33
36 35 34 33 32 32 32 31 28 26 24 21 18 16 16 16 15 14 13 13 12 10 9 8 6 5 4 4 5 4 3 4 7 10 11 12 14 15 15 16 16 15 16 17 18 19 19 20 21 22 23 24 24 25 25 25 25 25 26 26 27 27 27 28 28 29 29 30 30 30 31 31 31 31 30 30 30 30 30 31 31 32 33 33 34
37 37 35 35 35 34 33 33 31 29 28 25 21 18 17 17 17 17 16 15 15 13 12 10 8 6 5 4 4 5 6 4 2 5 8 10 12 13 13 14 14 15 15 15 16 17 18 18 18 19 20 21 22 22 23 23 24 24 24 25 25 26 26 27 27 27 28 28 28 29 29 29 29 29 29 29 29 30 30 30 31 32 33 33 33
38 39 38 38 37 36 35 34 34 32 30 28 25 22 20 19 19 19 18 17 16 15 13 11 9 7 6 5 4 4 5 7 5 1 3 7 9 10 11 11 12 13 14 14 14 15 16 16 16 17 18 18 19 20 20 21 22 22 22 23 23 24 25 25 25 25 25 26 26 26 26 27 27 27 27 27 28 28 28 29 29 30 31 33 33
40 40 41 41 39 38 37 36 36 35 33 31 29 26 24 22 20 20 20 19 18 16 14 12 10 8 7 7 6 5 4 5 7 6 3 1 4 7 8 9 9 11 12 12 11 12 13 15 15 15 16 17 17 17 18 19 20 20 21 21 21 21 22 22 22 22 22 23 23 23 24 24 24 25 25 26 26 26 27 27 28 29 31 32 32
39 40 42 43 42 41 40 38 37 36 35 33 32 30 26 23 22 22 21 20 19 18 15 14 12 10 8 8 7 7 6 5 5 7 7 5 3 1 4 5 6 8 10 11 11 10 10 12 13 14 14 15 16 16 17 17 18 18 19 19 19 19 19 19 19 19 19 19 20 20 21 21 22 23 23 23 24 25 25 26 26 27 29 30 30
40 40 43 44 44 43 43 41 40 38 37 35 34 33 29 26 25 26 24 22 20 19 18 17 15 12 10 9 9 10 9 8 6 7 8 8 7 6 2 2 4 5 6 8 10 10 10 10 11 12 12 13 14 15 16 16 17 17 17 17 17 16 16 16 16 16 16 16 16 17 18 19 20 20 21 21 22 22 23 24 24 25 26 27 27
48 45 47 47 45 44 44 44 43 40 38 37 35 34 32 30 30 30 27 25 23 22 22 21 19 16 14 12 11 12 12 11 10 10 9 9 9 8 7 5 5 6 5 5 6 8 9 9 10 10 10 11 12 13 14 15 15 16 16 15 15 14 14 14 13 13 13 13 12 13 15 16 17 18 19 19 20 21 21 21 22 22 23 24 25
55 52 52 51 48 46 45 46 46 43 41 39 38 37 36 35 35 34 30 28 27 27 26 25 24 22 20 18 16 15 14 15 14 12 10 10 9 10 11 10 8 7 8 7 5 5 7 8 8 8 8 9 10 11 12 13 13 13 14 14 14 13 12 11 11 11 10 10 9 9 10 12 14 16 17 18 19 19 19 19 20 20 21 22 22
60 59 57 54 51 49 48 47 48 47 44 41 40 40 40 40 39 38 35 32 31 31 30 28 28 27 25 23 21 20 18 17 16 14 11 11 12 13 14 13 11 10 10 10 10 6 3 5 6 6 6 6 6 7 9 10 10 11 11 12 12 12 11 10 9 8 7 7 7 6 6 7 10 12 14 16 17 18 18 18 18 19 20 20 20
62 62 60 57 53 51 50 50 50 49 47 44 43 42 42 41 40 40 40 39 37 34 32 31 32 32 31 29 27 25 23 20 18 16 14 15 15 16 16 16 16 15 14 13 14 12 7 2 3 4 4 5 4 4 4 6 7 8 9 10 10 11 11 10 8 7 5 5 4 4 2 2 4 7 10 13 15 17 17 17 17 17 18 18 17
64 62 61 59 57 55 54 53 53 52 50 48 47 46 44 42 40 41 42 42 40 38 37 35 35 35 35 34 34 32 28 24 22 20 18 19 19 18 16 17 19 20 19 16 16 15 11 8 6 3 4 4 4 4 3 2 3 5 6 7 8 9 9 9 8 7 5 3 2 2 3 2 2 3 5 8 10 13 14 16 16 16 17 16 15
68 64 62 60 60 59 58 56 55 55 54 52 48 47 46 44 41 40 41 41 41 41 40 39 37 37 37 37 37 36 32 29 27 25 21 21 22 21 19 19 20 21 21 19 17 15 12 11 11 7 4 3 4 6 6 5 3 2 3 4 6 6 7 7 7 6 5 4 2 2 3 5 5 6 6 6 7 9 11 12 14 15 15 15 14
75 69 64 62 61 61 60 59 57 56 55 53 50 47 47 47 45 42 41 42 44 44 44 43 42 41 40 39 38 38 35 32 31 29 25 23 23 24 24 23 22 22 21 20 17 15 13 13 13 10 7 5 5 7 8 7 6 6 5 4 4 4 4 4 5 5 5 5 4 3 4 6 7 9 9 10 10 10 10 11 11 12 13 14 14
80 75 69 64 62 62 61 58 58 58 56 54 53 51 48 46 47 47 46 45 45 46 47 47 46 44 43 42 41 39 38 36 34 32 29 27 26 26 26 26 25 24 23 22 20 17 15 15 15 13 11 10 9 9 11 10 10 9 9 8 7 6 4 4 4 3 4 5 6 6 5 7 9 10 12 13 14 14 13 13 13 13 13 13 14
83 80 76 70 64 62 61 57 55 55 55 55 55 54 51 48 47 49 50 49 48 49 50 50 49 47 45 45 43 42 42 41 39 36 33 30 29 28 28 29 28 27 26 25 23 20 19 18 17 16 16 14 12 12 14 15 14 13 13 12 11 10 9 8 7 6 5 5 7 8 9 9 10 11 13 15 16 17 16 16 16 16 16 16 16
87 83 80 76 71 67 65 63 58 55 56 58 59 58 57 55 54 54 54 53 53 53 52 51 50 50 49 49 48 47 47 46 44 42 38 35 33 31 31 32 31 28 28 28 27 25 24 23 21 21 20 18 16 15 16 18 17 16 15 15 14 13 12 12 11 10 8 8 8 9 10 11 12 13 15 16 17 17 17 18 18 19 19 19 20
94 89 85 82 80 77 74 71 68 65 64 63 62 63 63 61 60 62 63 61 59 58 56 53 51 52 52 52 52 51 50 48 47 45 42 40 37 34 32 33 33 31 30 30 30 29 29 28 27 26 25 23 21 19 20 21 20 18 17 18 18 17 16 14 14 13 12 11 11 11 12 13 13 14 16 18 19 19 19 19 19 20 20 20 20
98 96 93 89 85 83 81 78 76 76 76 72 68 67 67 66 65 67 69 67 64 63 62 60 57 55 55 54 53 52 51 50 50 48 44 42 41 37 34 34 36 35 34 33 33 33 33 33 31 30 29 29 27 25 23 23 24 23 22 21 21 21 20 18 16 15 14 14 14 14 15 15 15 16 17 19 21 23 23 22 22 21 21 20 20
98 99 100 98 93 87 85 84 82 81 81 80 78 76 72 69 69 70 71 72 69 66 65 65 63 61 60 59 57 55 54 54 54 53 50 48 46 41 36 36 39 39 38 37 38 37 37 35 33 33 33 33 32 29 27 26 26 27 27 25 25 25 26 24 21 17 15 14 14 15 17 18 19 20 21 22 24 25 25 25 25 24 23 21 20
100 100 101 103 102 97 91 87 85 84 84 84 84 83 80 76 73 72 72 73 73 71 68 67 67 66 65 64 63 61 59 59 59 57 55 53 51 47 40 38 42 43 42 42 42 41 40 38 35 35 37 38 35 32 31 30 29 29 30 30 29 29 30 30 27 21 17 15 14 15 17 19 20 21 23 24 25 26 27 27 27 27 26 24 23
102 104 104 103 103 104 101 96 89 86 87 87 86 86 86 83 79 75 74 74 75 74 73 71 70 70 69 68 67 66 65 64 63 61 59 56 55 52 46 43 45 47 47 47 46 45 44 43 40 40 42 42 40 37 35 34 34 33 33 34 33 33 34 35 34 28 22 18 17 18 21 23 23 24 25 26 26 28 28 28 28 29 28 28 26
102 103 104 104 103 104 105 104 99 93 89 89 88 87 88 88 85 80 76 76 76 75 73 74 74 74 73 72 71 70 70 69 67 66 64 61 58 55 50 49 51 52 52 52 50 48 47 46 45 45 44 45 45 43 39 38 38 38 37 38 37 37 38 39 39 35 28 23 21 22 25 27 28 28 28 29 28 29 30 30 30 29 29 29 29
103 104 104 104 105 104 104 105 106 103 98 94 91 89 89 91 91 87 82 80 80 77 74 74 76 77 77 76 74 73 74 74 72 71 69 65 61 58 54 53 55 57 58 57 55 53 51 49 49 48 48 48 49 48 45 43 42 41 42 42 42 42 42 42 42 40 33 28 28 29 31 32 33 33 34 34 33 33 32 32 32 32 32 32 33
105 105 105 106 106 106 106 106 107 108 107 104 101 97 94 93 93 92 90 87 86 83 79 77 77 79 80 79 77 76 77 77 76 74 72 69 64 60 59 59 60 61 63 63 62 58 55 53 51 51 52 52 53 53 50 48 46 46 46 47 47 46 46 45 45 44 40 39 40 41 41 41 40 40 40 40 39 39 38 36 35 35 35 36 38
107 106 106 106 106 107 109 109 109 109 110 111 110 108 105 102 99 97 95 93 92 90 87 83 81 81 82 82 80 79 80 80 79 77 76 73 68 64 62 63 64 66 67 68 67 65 62 58 56 56 56 57 58 57 55 53 52 51 51 51 51 51 51 51 51 51 51 51 51 50 50 49 49 49 48 46 45 45 44 43 42 40 40 40 42
112 111 110 109 108 108 109 110 111 111 112 113 114 113 112 110 108 105 102 99 97 95 93 90 87 85 85 85 85 83 82 82 82 81 81 79 75 71 68 68 69 70 71 71 71 70 68 65 63 62 61 62 63 63 62 60 59 59 58 58 58 59 59 59 59 60 60 59 58 58 58 58 58 58 57 55 52 50 49 49 48 48 48 49 50
115 115 115 114 113 112 111 111 112 114 114 115 116 117 117 116 114 113 111 108 105 102 99 96 93 91 90 89 89 88 86 85 84 84 84 84 82 80 78 77 76 76 76 77 77 76 75 73 71 70 69 68 68 69 69 67 66 65 65 65 66 66 67 67 67 67 67 66 65 65 65 65 65 65 64 62 60 58 55 54 53 53 54 55 56
117 118 117 116 115 115 114 113 114 115 116 117 117 118 119 120 119 118 117 115 113 110 107 104 101 98 97 95 94 93 91 89 87 87 87 88 88 87 85 85 84 84 84 83 83 82 82 81 80 79 77 75 75 75 76 75 74 73 72 72 72 73 73 74 74 74 74 73 72 71 71 71 72 72 71 70 67 65 63 61 59 58 58 59 60
115 117 118 117 117 117 117 116 116 115 116 117 118 119 120 121 122 122 121 120 119 117 114 112 109 106 105 103 102 100 98 96 94 92 92 92 92 92 92 91 90 89 89 88 88 87 87 86 86 85 85 84 82 82 81 82 82 82 81 81 80 79 78 79 79 80 80 79 79 79 78 79 79 79 78 76 74 71 69 67 65 64 63 63 63
114 115 116 117 118 119 120 119 119 118 117 118 118 119 120 121 122 123 123 123 123 122 121 119 117 115 113 111 110 109 107 106 104 103 102 102 101 100 100 98 97 95 94 93 93 92 92 91 90 90 90 90 89 89 88 88 88 88 88 88 87 86 85 85 86 86 86 86 86 86 85 85 85 84 83 82 80 78 76 73 71 69 68 67 67
117 117 118 120 121 122 122 122 121 120 120 120 119 119 120 120 121 122 123 123 124 124 124 124 123 122 120 119 117 116 116 115 114 113 112 111 111 110 109 109 107 106 104 101 99 98 97 96 95 94 94 94 94 94 94 94 93 94 94 94 94 93 92 92 92 92 92 92 92 92 91 91 90 89 88 87 86 85 83 81 78 75 73 72 71
Wind_Direction
46 52 52 50 51 50 52 59 64 65 63 61 60 59 58 58 57 56 54 54 56 58 59 60 63 65 66 66 65 66 67 68 69 71 73 75 77 79 81 82 84 85 86 88 89 90 91 91 91 91 91 91 90 89 88 88 87 86 85 84 83 82 81 79 79 78 78 77 76 74 72 69 67 67 68 69 69 70 70 74 83 91 105 116 107
46 52 55 50 52 55 54 55 61 66 66 64 63 61 60 60 60 58 56 55 56 58 60 61 62 64 66 68 68 67 67 67 68 70 71 73 75 76 78 80 82 84 86 87 87 88 88 89 89 89 89 88 87 87 86 86 85 83 82 81 80 79 78 76 75 74 74 73 72 72 70 69 67 69 71 72 72 73 74 77 82 88 99 104 90
46 49 56 52 50 58 61 56 58 65 67 67 65 63 62 62 62 61 60 58 57 58 60 62 64 64 66 68 70 70 68 68 68 69 70 72 73 74 76 77 79 81 83 85 86 86 87 87 87 87 87 87 86 86 84 83 82 81 79 78 78 76 75 73 72 71 70 68 68 69 70 70 70 71 74 75 76 76 77 79 81 85 89 87 70
47 41 51 57 50 58 67 63 59 62 67 69 67 65 63 63 64 64 63 61 60 59 60 62 64 66 67 67 69 71 71 70 69 69 70 71 73 73 74 75 76 78 79 81 83 84 84 85 85 85 85 85 85 85 84 84 83 82 81 80 80 78 77 75 74 73 72 70 69 69 70 70 70 71 73 74 75 76 77 79 81 82 82 74 60
64 23 40 65 55 55 71 72 65 63 67 69 69 68 66 64 65 65 66 65 63 61 61 62 64 66 68 68 69 70 72 72 72 70 69 70 71 72 73 73 74 75 76 78 80 81 82 82 82 82 82 83 83 83 84 84 84 85 85 83 82 80 79 77 75 74 72 71 70 70 70 69 69 70 71 71 72 73 75 76 77 77 76 70 58
215 251 76 90 71 58 72 78 74 68 68 70 70 70 68 66 65 65 66 67 66 64 63 63 64 65 67 69 70 70 71 72 73 73 71 70 70 70 71 72 73 74 74 75 76 77 78 78 79 79 79 79 80 80 81 83 83 83 84 83 81 79 78 76 75 74 73 72 70 70 71 71 70 70 70 70 70 70 70 70 69 68 65 60 50
219 220 186 138 115 84 81 84 83 76 72 72 72 72 70 68 67 66 66 67 67 66 65 65 64 65 67 68 69 70 71 72 73 74 74 73 71 70 70 71 71 73 74 74 73 73 74 75 75 75 74 74 75 76 78 79 80 80 79 79 79 78 76 75 74 74 74 73 71 70 71 72 73 72 71 70 70 69 68 66 64 62 57 52 43
214 215 197 169 166 164 115 96 93 87 79 76 74 75 73 70 69 67 66 67 68 67 66 66 65 66 67 67 68 69 70 72 73 74 75 75 75 73 72 71 71 71 72 73 73 73 73 73 73 73 72 72 71 71 72 73 74 74 74 74 75 74 74 73 73 73 74 73 72 71 71 71 72 73 72 72 71 69 68 66 63 60 57 51 43
207 209 203 181 183 199 171 127 109 100 91 82 77 78 77 75 71 69 67 67 68 67 66 66 66 67 68 68 68 68 69 70 72 73 74 75 76 76 75 74 73 72 72 72 73 73 73 73 73 73 73 72 71 70 69 69 69 68 68 68 69 70 70 71 70 71 72 72 72 71 71 71 70 71 71 72 71 69 67 64 61 58 55 50 43
206 205 204 187 184 200 197 166 133 115 103 92 83 79 79 78 75 71 68 67 68 68 67 66 66 67 69 69 69 69 69 69 70 72 73 74 75 76 77 76 75 74 73 73 73 73 74 74 74 73 73 72 71 70 69 68 67 66 66 65 66 67 67 67 67 67 68 69 69 70 71 70 70 71 71 71 70 68 65 60 56 53 47 42 36
210 204 203 192 184 193 201 190 159 135 116 103 94 85 81 81 79 75 70 68 68 69 69 68 67 67 68 69 70 70 70 70 70 70 71 73 74 75 76 77 76 75 74 74 73 74 74 74 75 74 73 71 69 68 67 66 65 64 64 63 63 64 64 64 64 64 64 64 64 65 66 67 68 69 69 69 67 64 61 56 52 49 43 37 32
214 205 203 199 189 190 201 202 182 156 134 116 107 99 89 83 81 79 75 71 69 69 71 71 70 68 67 68 69 70 70 70 70 70 69 71 72 73 75 76 76 76 76 75 74 73 73 73 73 73 72 70 69 67 65 64 63 62 61 60 60 60 60 60 61 61 61 61 60 60 60 61 62 63 63 62 59 55 51 50 50 49 46 41 37
218 207 202 203 198 194 200 208 199 175 158 135 118 113 107 94 86 83 81 76 71 69 71 72 73 72 69 66 67 69 69 69 69 71 70 70 71 72 73 74 74 75 75 75 74 73 72 71 71 71 70 69 68 66 65 63 62 60 59 58 57 56 56 56 56 57 57 58 59 58 57 57 56 55 54 54 53 51 48 47 49 51 52 51 49
220 211 202 204 205 200 199 206 208 193 178 164 141 128 122 115 103 91 86 83 78 73 70 71 73 75 74 71 67 66 68 68 68 69 70 70 71 71 71 72 72 72 72 72 73 73 72 70 69 68 68 68 67 65 64 62 61 60 58 57 56 55 54 54 55 56 56 57 58 59 59 58 57 56 53 52 52 53 53 53 55 57 59 60 60
219 215 207 206 210 209 202 202 206 205 198 190 178 160 144 134 127 111 96 90 87 81 76 71 68 70 75 77 73 68 68 69 69 69 68 68 69 70 71 71 71 70 69 69 70 70 70 70 68 67 67 67 67 65 64 62 60 60 59 58 57 57 56 55 55 56 57 58 59 60 61 60 60 59 57 56 55 56 58 60 61 64 65 67 68
219 217 212 209 213 214 208 201 200 205 208 208 207 200 182 159 145 138 123 107 99 96 90 82 75 70 70 75 79 78 73 70 71 72 71 69 67 68 69 70 71 70 69 68 68 68 68 69 68 67 66 66 67 66 65 64 62 60 59 58 58 58 57 57 56 56 57 58 59 59 60 59 59 60 59 59 59 59 61 63 65 68 70 72 73
218 218 216 213 215 217 213 204 199 203 207 211 214 213 208 198 181 167 159 150 136 117 105 95 90 83 74 70 76 82 82 78 75 74 75 74 70 68 67 68 70 70 70 69 68 67 67 67 67 66 65 64 65 65 66 65 64 62 60 59 58 57 57 58 57 58 57 57 58 59 59 59 58 59 59 59 60 61 62 65 67 70 73 76 78
217 219 220 217 218 219 216 208 203 204 207 209 213 215 216 213 210 206 195 183 182 177 136 113 109 102 91 78 73 76 80 81 80 76 74 76 75 73 70 69 69 69 70 70 69 67 66 65 65 64 64 62 61 62 63 64 64 63 61 59 58 56 55 55 56 57 58 58 58 59 60 60 60 59 59 59 60 62 64 67 70 74 77 80 84
217 219 221 221 221 223 221 214 208 207 209 211 213 217 220 221 220 223 223 216 216 225 231 193 149 121 101 92 84 76 72 73 76 75 72 71 73 74 72 71 70 70 69 69 69 68 66 64 63 62 62 61 59 58 59 60 61 61 61 59 58 57 54 53 53 54 55 56 57 58 60 61 62 63 62 62 62 64 68 71 75 79 83 86 90
219 219 222 223 223 224 224 219 212 210 211 213 215 219 222 225 226 227 230 233 231 233 242 251 261 294 40 55 53 66 73 70 67 68 69 68 68 69 69 69 70 71 72 71 70 68 66 64 62 60 60 59 58 57 56 56 58 59 59 59 58 57 55 54 52 52 52 53 55 57 59 61 63 65 66 67 68 70 73 77 81 85 88 92 95
221 221 222 224 224 225 226 224 218 213 212 213 215 221 225 228 230 230 232 237 239 240 243 249 264 286 314 354 2 350 16 69 73 70 69 70 68 67 66 66 65 66 70 74 74 72 70 67 63 60 59 57 57 56 55 54 54 55 56 57 58 56 55 54 53 53 53 53 54 56 58 61 63 66 68 71 74 77 80 83 87 90 93 96 100
225 225 223 224 225 226 226 226 224 219 215 212 212 219 228 231 231 231 233 239 244 246 247 251 257 271 286 303 322 325 330 336 53 85 79 77 74 69 67 67 65 61 60 65 71 74 74 72 69 65 61 58 56 55 54 53 52 52 53 55 56 56 55 54 53 53 53 55 57 58 60 63 65 67 70 74 77 82 85 89 93 96 99 102 105
227 227 225 224 225 225 226 227 227 224 219 214 212 216 225 232 234 234 235 240 246 249 250 251 253 255 257 264 270 280 317 329 323 358 86 87 84 78 72 69 70 68 61 57 59 65 70 72 73 72 68 63 59 56 55 54 51 51 51 53 55 56 56 55 54 54 54 56 60 63 65 67 70 72 74 78 82 86 91 95 99 102 105 108 110
226 227 225 224 224 224 226 227 229 228 224 219 217 217 221 229 235 236 236 238 243 247 246 242 241 242 242 247 253 251 272 321 329 316 291 161 100 86 78 71 71 77 74 67 59 57 60 64 67 71 72 70 66 61 58 56 54 52 51 52 53 55 56 56 55 55 57 59 62 67 71 73 77 80 82 85 88 91 96 100 105 109 112 114 116
220 227 226 224 224 225 225 226 228 229 227 224 223 222 222 227 234 236 236 237 241 246 246 242 237 235 235 236 238 239 246 270 306 309 294 264 238 125 88 67 59 70 77 78 77 68 60 58 59 63 68 70 71 68 63 60 58 55 54 53 53 54 55 55 55 56 59 62 66 71 77 81 85 88 91 93 96 98 101 105 109 113 116 119 121
210 219 224 223 223 225 225 225 227 228 228 227 226 225 225 227 232 235 235 237 240 242 244 243 240 238 236 233 232 234 238 244 257 281 291 285 269 250 222 26 15 32 57 72 83 86 79 68 59 57 61 66 69 71 69 65 63 60 57 55 54 53 54 53 53 54 57 63 70 77 83 88 93 97 100 102 104 106 108 111 114 116 119 122 124
207 211 218 220 221 223 224 226 227 227 227 226 227 228 227 228 230 232 234 236 237 238 241 242 242 243 243 240 237 234 239 249 257 260 268 274 268 255 250 275 315 329 349 29 66 87 89 80 69 59 58 63 68 72 72 69 67 64 61 59 57 55 53 52 51 50 51 58 70 82 91 97 101 105 109 112 113 115 117 118 120 122 124 126 128
208 209 215 218 219 221 225 228 228 226 224 223 225 226 227 227 228 229 232 236 238 238 240 240 241 242 243 243 242 240 242 251 255 251 248 253 254 248 245 248 261 285 303 323 357 57 86 84 74 62 53 56 66 73 74 71 69 68 66 63 61 58 56 53 50 47 46 49 60 78 96 105 110 114 117 121 124 125 127 128 129 131 133 133 134
209 211 214 216 217 219 224 227 227 225 224 224 224 226 227 228 230 231 235 239 239 239 241 243 244 242 242 244 244 242 244 245 244 240 238 245 249 246 241 238 237 249 271 291 304 318 44 74 69 58 42 35 46 65 76 75 71 70 71 70 66 62 59 56 52 48 43 39 42 54 84 107 118 125 128 130 133 135 137 137 138 140 142 142 141
209 212 215 216 216 219 223 227 226 225 225 227 227 228 230 232 233 236 238 241 241 240 240 243 245 243 243 246 246 243 242 244 243 241 237 237 240 241 237 233 229 234 244 260 274 280 288 326 28 38 25 3 359 22 62 77 75 69 66 69 71 67 62 57 52 49 43 34 25 21 31 90 127 137 142 143 143 145 146 147 147 149 152 152 151
211 213 215 216 217 219 223 226 226 225 227 230 230 230 231 233 236 238 239 241 241 240 237 238 241 243 242 245 247 243 239 242 249 250 244 238 235 232 229 228 228 228 231 236 246 254 260 268 277 307 353 351 323 310 320 29 67 68 60 57 60 64 64 60 53 47 41 30 7 339 319 291 256 200 175 168 163 161 159 158 159 160 162 165 166
214 214 215 216 218 219 221 223 225 226 228 230 230 231 231 232 234 237 238 239 239 239 239 237 238 240 240 241 245 245 243 245 252 253 248 242 237 231 227 225 227 232 236 239 241 243 247 257 263 270 297 325 302 288 286 294 315 355 33 40 42 45 49 52 48 41 33 21 350 288 276 271 267 262 249 228 208 194 185 179 177 175 175 177 180
217 216 215 215 217 219 220 221 223 226 228 229 229 230 233 234 235 236 238 237 236 236 238 237 237 238 239 240 243 246 246 247 250 251 247 243 239 236 231 228 229 238 245 248 248 246 246 252 256 257 260 261 264 271 274 277 287 296 310 332 355 11 21 27 28 25 14 359 341 297 265 257 255 258 261 257 250 238 225 215 208 202 199 199 201
218 218 218 217 217 219 221 222 223 225 227 230 231 231 234 236 236 236 235 234 232 232 233 234 235 237 239 240 241 244 245 244 244 245 244 242 239 238 236 235 235 241 247 250 250 247 244 246 248 246 245 244 244 250 257 264 273 284 294 302 303 303 312 327 337 343 339 330 326 315 291 269 257 254 253 254 254 254 252 249 246 240 233 228 227
219 219 219 219 218 218 220 222 223 225 227 230 230 229 229 230 230 231 230 228 227 229 230 230 232 234 236 237 238 239 240 240 240 240 240 238 236 235 235 238 239 240 244 248 250 246 245 247 246 242 241 242 240 241 247 251 257 268 279 287 289 288 287 287 293 300 305 310 309 308 304 295 283 273 264 258 254 253 254 256 258 258 256 254 253
223 221 221 221 220 219 219 221 221 221 224 227 227 225 224 223 224 226 226 224 223 226 229 229 229 231 232 232 232 233 234 236 236 236 236 234 232 231 231 234 238 241 244 247 247 245 247 250 249 244 241 241 241 243 247 249 248 254 263 269 274 280 281 280 281 282 287 294 295 294 295 296 295 292 286 281 274 267 261 258 257 256 256 257 259
226 224 224 223 222 221 220 222 221 220 221 222 221 222 222 222 224 227 228 227 226 227 229 228 227 229 230 232 232 232 232 234 234 234 233 230 228 229 230 231 235 239 243 246 246 245 247 250 251 248 243 241 242 243 245 249 250 249 251 253 257 264 272 276 280 281 282 285 286 285 283 284 288 291 292 293 293 289 282 275 269 264 260 259 261
227 227 227 226 225 223 223 223 223 224 224 223 220 220 223 224 225 228 229 229 229 229 229 227 226 227 230 232 234 234 233 233 233 233 233 230 227 229 234 236 235 234 236 241 243 244 245 248 251 252 246 241 240 239 239 244 247 246 246 245 246 252 259 266 273 279 281 282 282 281 278 276 276 278 283 289 293 293 292 288 284 279 274 270 269
229 228 228 228 228 227 225 224 225 225 225 224 223 221 222 224 225 226 227 228 229 229 228 227 226 228 229 230 232 233 233 232 232 234 236 234 231 232 238 242 239 234 231 233 236 238 241 244 249 253 250 243 236 232 233 238 245 247 246 245 245 247 252 257 261 268 275 277 280 280 277 274 272 271 273 278 284 287 289 288 287 286 284 281 278
230 230 229 229 229 229 228 226 226 226 225 225 225 224 223 224 225 226 227 228 228 229 228 227 226 227 228 229 230 231 232 231 232 233 235 235 234 234 237 241 240 236 231 229 229 230 233 237 242 248 250 244 235 230 231 234 240 245 247 247 247 248 251 254 254 258 263 267 273 280 279 276 275 274 274 275 277 280 282 284 284 283 283 283 281
231 231 231 231 231 230 230 230 228 227 226 226 226 226 226 226 226 226 226 227 228 229 229 229 228 227 228 229 230 231 231 230 231 233 235 236 236 235 234 236 237 236 233 231 229 229 230 233 238 244 248 247 239 233 232 234 236 239 244 247 249 250 252 254 254 255 258 262 267 272 274 273 272 273 275 276 275 276 277 279 280 280 281 281 280
231 231 232 232 232 232 232 232 231 230 229 228 228 228 229 228 228 226 225 225 227 229 230 230 230 230 230 230 231 231 232 231 232 235 237 238 236 233 232 233 234 234 233 232 230 231 232 235 238 242 245 247 244 239 235 234 234 237 242 247 250 251 252 253 253 253 254 261 267 268 268 268 268 269 272 274 276 276 275 275 275 276 278 281 282
231 231 231 231 232 232 232 232 233 233 232 231 230 230 230 230 229 228 226 225 226 228 230 231 231 232 231 231 231 232 233 233 233 236 238 237 235 232 231 232 233 234 234 233 233 234 235 237 239 241 242 243 242 241 238 235 234 238 243 247 250 251 251 252 252 249 251 262 272 272 270 270 270 270 270 272 274 275 274 271 270 271 275 278 281
232 232 232 232 231 232 232 232 233 233 234 234 233 233 232 231 231 231 229 228 228 229 231 232 231 231 231 231 231 232 233 234 234 235 236 236 234 231 230 231 233 233 234 235 235 237 237 238 240 242 243 241 239 239 239 237 237 241 244 246 249 250 249 249 249 249 257 269 275 276 275 274 274 273 272 272 273 274 275 272 268 267 270 275 278
232 233 233 233 232 232 232 232 232 233 233 234 235 235 234 234 234 233 232 231 231 231 232 232 232 232 232 231 231 232 233 234 234 234 235 235 234 233 232 233 234 234 235 236 237 238 239 240 241 242 245 244 241 238 238 239 241 244 246 247 249 250 250 249 247 250 260 269 273 275 275 275 274 275 275 274 273 273 274 274 272 269 267 270 274
233 233 232 232 233 232 232 232 232 232 233 233 235 236 236 236 236 235 235 234 234 234 233 233 233 233 232 232 232 233 233 234 233 233 234 234 235 236 237 238 238 237 236 237 238 239 240 241 242 243 245 246 245 242 240 241 244 247 248 249 252 254 254 254 253 255 260 266 270 273 274 274 275 276 276 276 275 273 272 273 273 273 272 272 274
234 234 234 233 233 233 233 233 233 233 233 233 234 235 236 237 237 237 236 236 236 236 235 234 233 233 233 233 233 234 234 234 234 234 234 235 236 238 240 243 244 244 242 240 240 241 242 243 244 245 246 247 247 247 246 245 246 247 249 251 253 255 257 258 258 259 263 266 269 271 272 273 275 276 276 276 276 276 275 274 274 275 276 275 275
236 235 235 235 235 235 234 234 234 234 234 234 234 234 235 236 238 238 238 238 237 237 237 237 237 236 234 234 235 235 235 235 234 235 235 237 238 240 242 244 247 248 248 247 244 244 244 245 246 247 248 249 249 250 250 250 249 249 250 251 253 255 257 258 260 262 264 267 268 269 270 271 273 275 276 276 276 276 276 276 275 276 277 276 276
236 236 236 236 236 236 236 236 236 236 236 236 236 236 236 236 237 238 239 240 239 239 238 238 238 238 238 237 237 237 236 236 236 237 237 238 239 241 243 245 247 248 250 250 249 248 247 247 247 248 249 250 250 251 252 252 252 252 252 253 254 255 256 257 259 261 264 265 267 268 269 270 272 273 274 275 275 275 276 276 276 276 277 277 276
235 235 236 236 236 236 236 236 236 237 237 237 237 237 237 238 238 238 239 240 241 241 240 240 239 239 239 240 240 240 240 240 241 241 242 242 243 244 245 247 248 249 250 251 251 251 250 249 248 249 249 250 251 252 253 253 254 254 255 255 256 256 256 257 258 260 263 264 266 267 269 270 271 272 273 274 274 275 275 276 276 276 276 276 276
235 235 235 236 236 236 236 236 236 237 237 238 238 238 238 239 239 239 240 240 241 241 242 242 242 242 241 241 242 242 243 244 244 245 246 246 247 248 249 250 251 251 251 251 251 251 251 251 250 250 250 250 251 252 253 254 254 255 256 257 257 258 258 259 260 261 263 265 266 268 269 270 271 272 273 273 274 274 275 275 275 275 275 275 275
Height
11023 11023 11023 11023 11023 11022 11022 11021 11020 11019 11018 11018 11017 11016 11015 11015 11014 11012 11011 11009 11008 11007 11005 11003 11001 10999 10998 10997 10996 10995 10994 10993 10993 10992 10991 10990 10989 10989 10988 10987 10986 10986 10986 10985 10985 10984 10984 10984 10984 10984 10984 10984 10984 10984 10985 10985 10986 10986 10986 10986 10985 10985 10984 10984 10984 10983 10983 10982 10982 10981 10981 10980 10980 10980 10979 10979 10979 10978 10978 10979 10979 10979 10980 10981 10982
11023 11024 11024 11024 11024 11023 11023 11022 11021 11020 11020 11020 11019 11018 11017 11017 11016 11014 11013 11012 11010 11009 11008 11006 11005 11003 11001 11000 10999 10999 10998 10997 10996 10995 10995 10994 10993 10993 10992 10991 10990 10990 10990 10989 10988 10988 10987 10987 10987 10986 10986 10986 10986 10986 10986 10987 10987 10987 10987 10987 10987 10986 10986 10985 10985 10985 10984 10984 10983 10982 10982 10982 10981 10981 10980 10980 10980 10979 10980 10980 10981 10981 10982 10983 10983
11024 11024 11025 11024 11024 11024 11024 11024 11023 11022 11021 11021 11021 11020 11019 11019 11018 11017 11015 11014 11013 11012 11011 11009 11008 11007 11005 11004 11003 11002 11001 11001 11000 10999 10998 10998 10997 10997 10996 10995 10995 10994 10993 10992 10992 10991 10991 10991 10990 10989 10989 10989 10988 10988 10988 10988 10988 10988 10988 10988 10988 10988 10987 10987 10987 10986 10986 10985 10985 10984 10983 10983 10983 10982 10982 10981 10981 10981 10981 10982 10982 10983 10984 10984 10984
11024 11024 11025 11025 11025 11025 11025 11024 11024 11023 11023 11022 11022 11022 11021 11021 11020 11019 11018 11016 11015 11014 11013 11012 11011 11010 11009 11007 11006 11005 11004 11004 11003 11002 11002 11001 11001 11000 11000 10999 10998 10998 10997 10996 10995 10995 10994 10994 10993 10992 10992 10992 10991 10991 10991 10990 10990 10990 10990 10990 10990 10990 10989 10989 10988 10988 10987 10987 10987 10986 10985 10985 10984 10984 10984 10983 10983 10983 10983 10983 10984 10984 10985 10985 10985
11024 11024 11025 11025 11025 11025 11025 11025 11025 11025 11024 11024 11024 11023 11023 11023 11022 11021 11020 11019 11017 11016 11016 11014 11013 11012 11011 11010 11009 11008 11007 11006 11006 11005 11005 11004 11004 11003 11003 11002 11001 11001 11000 10999 10999 10998 10997 10996 10996 10995 10995 10995 10994 10994 10994 10993 10993 10993 10993 10993 10992 10991 10991 10990 10990 10989 10989 10989 10988 10988 10987 10987 10986 10986 10985 10985 10985 10985 10985 10985 10986 10986 10986 10986 10986
11023 11024 11025 11025 11025 11025 11026 11026 11026 11026 11025 11025 11025 11024 11024 11024 11024 11023 11022 11021 11020 11019 11018 11017 11016 11015 11014 11013 11012 11011 11010 11009 11008 11007 11007 11007 11006 11006 11005 11005 11004 11004 11003 11003 11002 11001 10999 10999 10998 10998 10998 10997 10997 10997 10997 10996 10996 10996 10995 10994 10993 10993 10992 10991 10991 10991 10990 10990 10990 10989 10989 10988 10988 10987 10987 10987 10987 10986 10987 10987 10987 10987 10987 10987 10987
11023 11024 11025 11025 11025 11025 11026 11026 11027 11027 11026 11026 11026 11026 11025 11025 11025 11025 11024 11023 11022 11021 11020 11019 11018 11017 11016 11015 11014 11013 11012 11011 11011 11010 11009 11009 11008 11008 11008 11007 11007 11006 11006 11005 11004 11003 11002 11001 11001 11000 11000 11000 11000 11000 10999 10998 10998 10998 10997 10996 10995 10994 10993 10992 10992 10992 10991 10991 10991 10990 10990 10989 10989 10989 10988 10988 10988 10988 10988 10988 10988 10988 10988 10988 10987
11023 11024 11025 11025 11025 11026 11026 11026 11027 11027 11027 11027 11027 11027 11027 11026 11026 11026 11026 11025 11024 11023 11022 11021 11021 11019 11018 11017 11016 11016 11015 11014 11013 11012 11011 11010 11010 11010 11010 11009 11009 11008 11008 11006 11005 11004 11004 11003 11003 11003 11002 11002 11002 11002 11001 11000 11000 10999 10998 10997 10996 10995 10994 10994 10993 10993 10992 10992 10992 10992 10991 10991 10990 10990 10989 10989 10989 10989 10989 10989 10989 10989 10989 10988 10988
11022 11023 11024 11024 11025 11026 11026 11026 11027 11027 11027 11027 11028 11028 11028 11027 11027 11027 11027 11027 11025 11024 11024 11023 11023 11022 11021 11019 11018 11018 11017 11016 11015 11014 11013 11012 11012 11011 11011 11011 11011 11010 11010 11009 11007 11006 11006 11006 11005 11005 11004 11004 11004 11003 11003 11002 11001 11000 10999 10998 10997 10996 10995 10995 10994 10994 10993 10993 10993 10992 10992 10991 10991 10990 10990 10990 10990 10990 10990 10990 10990 10990 10989 10989 10989
11022 11022 11023 11024 11025 11026 11026 11027 11027 11027 11028 11028 11028 11028 11029 11028 11028 11028 11028 11028 11027 11026 11025 11025 11024 11024 11023 11022 11021 11021 11020 11018 11017 11016 11015 11014 11014 11013 11012 11012 11012 11012 11012 11011 11010 11009 11008 11008 11008 11007 11006 11006 11005 11004 11004 11003 11002 11001 11000 10999 10998 10997 10997 10996 10995 10995 10994 10994 10993 10993 10992 10992 10992 10991 10991 10991 10991 10991 10991 10991 10991 10990 10990 10990 10989
11021 11022 11022 11023 11024 11025 11026 11027 11027 11028 11028 11028 11028 11029 11029 11029 11029 11028 11029 11029 11028 11027 11027 11026 11026 11025 11024 11024 11023 11023 11022 11021 11020 11019 11018 11017 11016 11015 11014 11014 11014 11014 11014 11013 11013 11012 11011 11010 11010 11009 11008 11007 11006 11006 11005 11004 11003 11003 11002 11001 11000 10999 10998 10997 10996 10996 10995 10995 10994 10994 10993 10993 10992 10992 10992 10992 10992 10992 10992 10991 10991 10991 10991 10990 10990
11020 11021 11021 11023 11024 11025 11026 11027 11027 11028 11028 11029 11029 11029 11029 11029 11029 11029 11029 11030 11030 11029 11028 11028 11027 11026 11026 11025 11025 11025 11024 11023 11022 11021 11021 11019 11018 11018 11017 11016 11017 11016 11016 11016 11015 11014 11014 11013 11012 11011 11010 11009 11008 11007 11006 11006 11005 11004 11003 11002 11001 11000 10999 10998 10997 10997 10996 10995 10995 10994 10994 10994 10994 10993 10993 10993 10993 10993 10992 10992 10992 10991 10991 10991 10990
11019 11019 11020 11022 11023 11024 11025 11026 11027 11028 11028 11029 11029 11029 11029 11029 11029 11029 11030 11030 11030 11030 11030 11029 11028 11028 11027 11027 11027 11026 11025 11025 11024 11023 11023 11022 11021 11020 11020 11019 11019 11019 11018 11018 11017 11016 11016 11015 11014 11012 11011 11010 11009 11009 11008 11007 11006 11005 11005 11004 11003 11002 11001 11000 10999 10998 10997 10997 10996 10996 10995 10995 10995 10994 10994 10994 10994 10993 10993 10993 10993 10992 10991 10991 10990
11017 11018 11019 11020 11022 11023 11024 11025 11026 11027 11028 11028 11029 11029 11029 11029 11029 11030 11030 11030 11031 11031 11031 11030 11030 11029 11029 11028 11028 11028 11027 11026 11026 11025 11025 11024 11023 11023 11022 11022 11021 11021 11020 11020 11019 11018 11017 11016 11015 11014 11013 11012 11011 11010 11010 11009 11008 11007 11006 11006 11005 11004 11003 11002 11001 11000 10999 10998 10998 10997 10997 10996 10996 10995 10995 10995 10994 10994 10994 10994 10993 10993 10992 10991 10991
11014 11016 11017 11019 11021 11022 11023 11024 11025 11027 11027 11027 11028 11028 11028 11029 11029 11030 11030 11031 11031 11031 11031 11031 11031 11030 11030 11030 11029 11029 11028 11028 11027 11027 11026 11026 11025 11025 11024 11024 11023 11023 11022 11022 11021 11020 11019 11018 11017 11016 11015 11014 11013 11012 11012 11011 11010 11009 11008 11008 11007 11006 11005 11004 11003 11002 11001 11000 11000 10999 10998 10998 10997 10997 10996 10996 10995 10995 10995 10994 10994 10993 10993 10992 10992
11012 11014 11015 11017 11019 11021 11022 11023 11024 11025 11026 11026 11027 11027 11027 11028 11029 11030 11030 11031 11031 11031 11031 11031 11031 11031 11031 11031 11030 11030 11030 11029 11029 11028 11028 11027 11027 11027 11026 11026 11025 11025 11024 11024 11023 11022 11021 11020 11019 11018 11017 11016 11015 11015 11014 11013 11012 11012 11011 11010 11009 11009 11008 11007 11006 11005 11004 11003 11002 11001 11001 11000 10999 10998 10998 10997 10997 10996 10996 10996 10995 10995 10994 10994 10993
11009 11011 11013 11015 11018 11019 11021 11022 11023 11024 11024 11025 11026 11026 11026 11027 11028 11029 11030 11030 11030 11031 11031 11031 11031 11031 11031 11031 11031 11030 11030 11030 11029 11029 11029 11028 11028 11028 11028 11028 11027 11026 11026 11025 11025 11024 11023 11022 11021 11020 11019 11019 11018 11017 11016 11015 11015 11014 11013 11012 11012 11011 11010 11009 11008 11007 11006 11005 11004 11004 11003 11002 11001 11000 11000 10999 10999 10998 10998 10997 10997 10996 10996 10996 10996
11007 11008 11010 11013 11016 11018 11019 11021 11022 11023 11023 11024 11025 11025 11026 11026 11027 11028 11029 11030 11030 11030 11031 11031 11031 11031 11031 11031 11031 11031 11031 11030 11030 11030 11030 11029 11029 11030 11030 11029 11029 11028 11027 11027 11026 11026 11025 11024 11023 11023 11022 11021 11020 11019 11018 11018 11017 11017 11016 11015 11014 11013 11012 11011 11010 11009 11008 11008 11007 11006 11006 11005 11004 11003 11002 11002 11001 11001 11000 11000 10999 10999 10999 10999 10999
11003 11006 11008 11011 11014 11016 11017 11019 11020 11022 11023 11023 11024 11025 11025 11025 11026 11027 11028 11029 11029 11030 11030 11031 11031 11031 11031 11031 11031 11031 11031 11031 11031 11031 11031 11031 11031 11031 11030 11030 11030 11029 11029 11028 11028 11027 11027 11026 11025 11025 11024 11023 11022 11022 11021 11020 11020 11019 11018 11017 11016 11015 11015 11014 11013 11012 11011 11010 11009 11009 11008 11008 11007 11006 11006 11005 11005 11004 11003 11003 11003 11003 11003 11003 11003
11000 11003 11005 11008 11011 11013 11015 11017 11018 11020 11021 11022 11023 11024 11024 11025 11025 11026 11027 11028 11028 11029 11030 11030 11030 11031 11031 11031 11031 11031 11031 11031 11032 11032 11032 11032 11032 11032 11031 11031 11031 11030 11029 11029 11028 11028 11028 11027 11027 11026 11026 11025 11024 11023 11023 11022 11022 11021 11020 11019 11018 11018 11017 11017 11016 11015 11014 11013 11012 11012 11011 11011 11010 11009 11009 11009 11008 11008 11007 11007 11007 11007 11007 11007 11008
10997 10999 11002 11004 11007 11010 11012 11014 11016 11018 11019 11020 11022 11022 11023 11024 11025 11025 11026 11026 11027 11028 11028 11029 11030 11030 11031 11031 11031 11031 11032 11032 11032 11032 11033 11033 11032 11032 11032 11032 11032 11031 11030 11030 11029 11029 11028 11028 11028 11027 11027 11026 11026 11025 11024 11024 11024 11023 11022 11022 11021 11020 11020 11019 11019 11018 11017 11016 11016 11015 11015 11014 11013 11013 11013 11012 11012 11012 11011 11011 11011 11011 11011 11012 11012
10994 10996 10998 11001 11004 11006 11009 11011 11013 11015 11016 11018 11019 11020 11022 11023 11023 11024 11025 11025 11026 11027 11027 11028 11029 11029 11030 11030 11031 11031 11031 11032 11033 11033 11033 11033 11033 11033 11033 11033 11033 11032 11031 11031 11030 11029 11029 11028 11028 11028 11028 11028 11027 11027 11026 11026 11025 11025 11024 11024 11023 11023 11022 11022 11021 11021 11020 11020 11019 11019 11018 11018 11017 11017 11016 11016 11016 11016 11015 11015 11015 11015 11015 11016 11016
10990 10992 10995 10998 11000 11003 11006 11008 11010 11012 11014 11015 11016 11018 11019 11020 11021 11023 11024 11024 11025 11025 11026 11027 11027 11028 11028 11029 11030 11030 11031 11031 11032 11033 11033 11033 11033 11033 11033 11033 11033 11032 11032 11032 11031 11031 11030 11029 11029 11029 11029 11029 11029 11028 11028 11028 11028 11027 11026 11026 11025 11025 11024 11024 11024 11024 11023 11023 11022 11022 11022 11021 11021 11020 11020 11020 11020 11019 11019 11019 11019 11019 11019 11019 11020
10985 10987 10990 10994 10997 11000 11002 11005 11006 11008 11010 11012 11013 11015 11016 11018 11019 11021 11021 11022 11023 11024 11025 11025 11026 11026 11027 11028 11029 11029 11030 11030 11031 11032 11033 11033 11033 11033 11033 11033 11033 11032 11032 11032 11032 11032 11031 11031 11030 11030 11030 11030 11029 11029 11030 11029 11029 11029 11029 11028 11028 11027 11027 11026 11026 11026 11026 11026 11026 11025 11025 11025 11024 11024 11023 11023 11023 11023 11023 11023 11023 11023 11023 11023 11023
10982 10984 10986 10990 10993 10996 10998 11001 11002 11004 11006 11008 11010 11012 11014 11015 11017 11018 11019 11020 11021 11022 11023 11024 11025 11025 11026 11027 11027 11028 11028 11029 11029 11030 11031 11032 11033 11032 11032 11032 11032 11032 11031 11031 11031 11032 11032 11032 11031 11031 11031 11031 11030 11030 11030 11030 11031 11031 11031 11030 11030 11029 11029 11029 11029 11028 11028 11028 11028 11028 11028 11028 11028 11027 11027 11026 11026 11026 11025 11025 11025 11026 11026 11026 11026
10977 10979 10982 10985 10988 10991 10994 10996 10998 11000 11002 11004 11007 11009 11011 11012 11014 11014 11016 11017 11019 11020 11021 11022 11023 11024 11025 11025 11026 11026 11027 11027 11027 11027 11028 11030 11032 11032 11032 11032 11032 11032 11031 11031 11031 11031 11031 11032 11032 11032 11032 11032 11032 11031 11031 11031 11031 11032 11032 11032 11032 11031 11031 11031 11031 11031 11031 11031 11031 11030 11030 11030 11030 11030 11030 11029 11029 11029 11028 11028 11028 11028 11028 11028 11029
10972 10974 10977 10980 10984 10987 10989 10991 10994 10997 10999 11001 11003 11005 11007 11008 11009 11011 11013 11014 11016 11017 11018 11020 11021 11022 11023 11024 11024 11025 11025 11026 11026 11027 11027 11028 11029 11030 11031 11031 11031 11031 11031 11031 11031 11031 11031 11031 11032 11033 11033 11033 11033 11033 11032 11032 11032 11032 11032 11033 11033 11033 11033 11033 11033 11033 11034 11033 11033 11033 11033 11032 11032 11032 11032 11032 11031 11031 11031 11031 11030 11030 11030 11031 11031
10966 10969 10972 10975 10979 10982 10984 10987 10990 10993 10995 10997 10999 11001 11003 11004 11005 11008 11010 11011 11012 11013 11015 11017 11018 11019 11020 11021 11022 11023 11024 11025 11025 11026 11026 11026 11027 11028 11029 11029 11030 11030 11031 11031 11031 11031 11031 11031 11031 11032 11033 11034 11034 11034 11033 11033 11033 11033 11033 11033 11033 11034 11034 11034 11034 11035 11035 11036 11036 11036 11035 11035 11034 11034 11033 11033 11033 11033 11033 11033 11033 11033 11033 11033 11033
10960 10963 10966 10969 10973 10976 10979 10982 10985 10988 10991 10993 10995 10996 10998 11000 11002 11005 11007 11008 11008 11009 11011 11013 11015 11016 11017 11017 11019 11020 11021 11023 11024 11024 11025 11025 11025 11026 11026 11027 11028 11029 11030 11030 11031 11031 11031 11030 11030 11031 11033 11034 11034 11034 11034 11034 11034 11033 11033 11033 11033 11033 11034 11034 11035 11035 11036 11037 11038 11038 11038 11037 11036 11036 11035 11034 11034 11034 11034 11034 11034 11034 11035 11035 11035
10954 10957 10960 10963 10967 10971 10975 10977 10980 10984 10987 10988 10990 10992 10993 10996 10999 11001 11002 11003 11003 11005 11008 11009 11010 11011 11013 11013 11015 11017 11018 11019 11021 11022 11022 11023 11023 11024 11025 11026 11026 11027 11028 11029 11030 11031 11031 11031 11030 11030 11031 11033 11034 11034 11034 11034 11034 11034 11034 11033 11033 11033 11033 11034 11034 11035 11036 11037 11038 11039 11039 11039 11039 11038 11037 11036 11035 11035 11035 11035 11035 11035 11035 11035 11035
10949 10951 10955 10958 10962 10966 10970 10972 10975 10979 10982 10983 10985 10986 10989 10992 10994 10996 10997 10998 10998 10999 11002 11004 11005 11007 11009 11010 11010 11012 11015 11017 11018 11019 11020 11020 11020 11021 11022 11023 11024 11025 11026 11027 11028 11029 11030 11030 11030 11030 11031 11032 11033 11034 11034 11034 11034 11034 11034 11034 11034 11033 11033 11033 11034 11034 11035 11036 11037 11039 11039 11040 11040 11040 11039 11038 11037 11036 11036 11035 11035 11035 11035 11035 11035
10943 10946 10949 10953 10956 10960 10964 10967 10970 10973 10976 10978 10980 10981 10984 10987 10989 10991 10993 10994 10993 10994 10997 11000 11001 11003 11004 11006 11007 11008 11011 11014 11015 11016 11017 11017 11018 11019 11019 11020 11022 11023 11024 11025 11027 11028 11028 11029 11030 11030 11030 11031 11032 11033 11033 11034 11034 11034 11034 11035 11035 11034 11034 11033 11033 11033 11034 11035 11036 11038 11039 11039 11040 11040 11040 11039 11038 11038 11037 11036 11036 11035 11035 11035 11035
10936 10941 10944 10947 10950 10954 10958 10961 10964 10967 10970 10972 10975 10976 10978 10981 10984 10987 10990 10989 10989 10990 10992 10994 10996 10998 10999 11001 11003 11005 11007 11010 11011 11013 11014 11014 11015 11015 11016 11017 11019 11020 11022 11023 11025 11026 11026 11027 11028 11029 11030 11030 11030 11031 11031 11032 11033 11033 11033 11034 11034 11035 11034 11034 11033 11033 11033 11034 11035 11036 11037 11038 11039 11039 11039 11039 11039 11038 11038 11037 11036 11036 11035 11035 11035
10929 10934 10938 10941 10944 10949 10955 10958 10958 10961 10964 10967 10969 10971 10974 10976 10979 10981 10982 10983 10984 10984 10984 10987 10990 10993 10995 10997 10999 11001 11003 11005 11007 11009 11010 11011 11011 11012 11013 11014 11016 11017 11019 11020 11022 11023 11024 11025 11026 11026 11027 11028 11028 11028 11029 11030 11030 11031 11031 11032 11032 11033 11033 11033 11033 11032 11032 11032 11033 11035 11036 11036 11037 11038 11038 11038 11038 11038 11037 11037 11037 11036 11036 11035 11034
10921 10927 10932 10936 10940 10946 10951 10952 10952 10956 10959 10960 10961 10965 10968 10970 10971 10972 10973 10975 10976 10975 10976 10981 10984 10987 10990 10991 10994 10996 10998 11000 11002 11004 11005 11007 11007 11008 11009 11011 11012 11014 11015 11016 11018 11020 11020 11021 11022 11023 11024 11025 11025 11025 11026 11026 11027 11028 11029 11029 11030 11030 11031 11031 11032 11031 11031 11031 11032 11033 11034 11035 11035 11036 11036 11036 11036 11036 11036 11036 11036 11036 11035 11035 11034
10914 10921 10926 10929 10933 10938 10940 10941 10945 10949 10949 10949 10952 10956 10959 10961 10963 10963 10964 10967 10968 10968 10970 10975 10979 10981 10984 10985 10987 10989 10992 10995 10997 10999 11000 11002 11003 11004 11005 11007 11008 11010 11011 11012 11014 11016 11016 11017 11018 11019 11021 11021 11021 11022 11023 11023 11024 11025 11026 11026 11027 11028 11028 11029 11029 11029 11029 11029 11030 11030 11031 11032 11033 11034 11034 11033 11034 11034 11034 11034 11034 11034 11033 11033 11033
10904 10912 10915 10916 10920 10925 10927 10930 10935 10937 10935 10937 10943 10946 10949 10953 10954 10954 10955 10959 10963 10964 10966 10970 10973 10976 10978 10979 10982 10984 10987 10990 10992 10994 10996 10997 10998 11000 11001 11003 11004 11006 11007 11008 11009 11011 11012 11013 11015 11016 11017 11017 11018 11019 11020 11021 11022 11022 11022 11022 11023 11024 11025 11025 11026 11026 11026 11027 11027 11028 11029 11030 11031 11032 11032 11031 11031 11031 11032 11032 11031 11031 11031 11031 11030
10893 10900 10902 10904 10908 10914 10917 10920 10924 10925 10925 10930 10935 10938 10941 10945 10946 10947 10949 10952 10956 10959 10961 10964 10967 10970 10972 10975 10977 10979 10982 10985 10987 10989 10991 10992 10993 10994 10996 10998 11000 11001 11003 11004 11005 11006 11008 11009 11011 11012 11012 11013 11014 11015 11016 11017 11018 11019 11019 11018 11019 11020 11021 11022 11023 11023 11023 11023 11024 11025 11025 11026 11028 11029 11029 11029 11028 11028 11029 11029 11029 11029 11028 11029 11028
10884 10888 10890 10893 10898 10904 10908 10910 10912 10915 10917 10921 10925 10929 10933 10936 10938 10940 10942 10945 10948 10952 10954 10957 10960 10963 10966 10969 10971 10974 10976 10979 10981 10983 10985 10987 10988 10989 10990 10992 10995 10997 10998 10999 10999 11000 11003 11005 11007 11007 11007 11008 11010 11011 11012 11013 11014 11014 11015 11015 11015 11015 11016 11017 11019 11020 11020 11020 11020 11021 11022 11023 11024 11025 11026 11026 11025 11025 11025 11026 11026 11026 11026 11026 11025
10873 10875 10878 10883 10888 10893 10898 10901 10903 10906 10909 10912 10915 10920 10924 10927 10930 10933 10936 10938 10941 10944 10947 10950 10952 10955 10957 10961 10964 10967 10970 10972 10975 10976 10978 10980 10982 10983 10984 10986 10989 10991 10992 10993 10993 10994 10997 10999 11002 11002 11002 11003 11005 11006 11006 11008 11009 11010 11011 11011 11011 11011 11011 11012 11014 11015 11016 11016 11016 11018 11018 11019 11020 11021 11022 11023 11023 11022 11022 11022 11022 11023 11023 11023 11023
10860 10863 10869 10875 10880 10884 10888 10892 10896 10898 10900 10903 10907 10911 10916 10920 10922 10925 10929 10931 10934 10936 10939 10942 10945 10947 10950 10953 10956 10959 10962 10965 10967 10969 10971 10973 10975 10976 10978 10980 10982 10985 10986 10987 10987 10989 10991 10993 10995 10996 10997 10999 11001 11001 11001 11001 11003 11004 11005 11006 11007 11007 11007 11007 11008 11010 11011 11012 11013 11014 11015 11015 11016 11017 11018 11019 11019 11019 11019 11018 11018 11018 11019 11019 11019
10845 10850 10858 10865 10871 10875 10879 10884 10888 10890 10893 10896 10899 10903 10907 10911 10914 10917 10920 10923 10925 10928 10931 10934 10937 10939 10942 10945 10948 10951 10954 10957 10959 10961 10963 10965 10967 10969 10971 10973 10976 10978 10980 10981 10982 10983 10985 10987 10988 10990 10992 10994 10996 10997 10996 10996 10997 10998 10999 11001 11002 11002 11002 11002 11003 11005 11006 11007 11008 11010 11010 11010 11011 11013 11013 11014 11015 11015 11015 11015 11014 11014 11014 11014 11015
10832 10837 10844 10852 10858 10864 10869 10874 10878 10881 10884 10888 10891 10895 10898 10901 10905 10908 10911 10914 10916 10919 10921 10924 10928 10931 10933 10936 10939 10942 10945 10948 10950 10953 10955 10957 10959 10961 10963 10966 10969 10971 10973 10974 10975 10977 10978 10980 10981 10983 10985 10987 10989 10991 10991 10991 10991 10992 10993 10994 10995 10996 10996 10997 10997 10998 10999 11000 11002 11004 11006 11006 11007 11008 11009 11009 11010 11011 11011 11011 11010 11010 11010 11010 11010
10822 10826 10832 10838 10845 10851 10856 10862 10867 10870 10874 10878 10881 10884 10888 10891 10894 10898 10901 10904 10907 10909 10912 10915 10918 10921 10924 10927 10930 10933 10936 10938 10941 10944 10946 10948 10950 10953 10955 10958 10961 10963 10965 10967 10968 10970 10971 10973 10974 10976 10978 10980 10982 10984 10985 10985 10986 10986 10986 10988 10988 10989 10990 10991 10991 10991 10991 10992 10994 10996 10999 11001 11002 11003 11004 11004 11005 11005 11006 11006 11007 11007 11006 11006 11005
10809 10814 10820 10826 10832 10838 10843 10848 10853 10858 10862 10865 10868 10872 10876 10879 10883 10887 10890 10894 10896 10899 10902 10905 10908 10910 10913 10917 10920 10924 10926 10929 10932 10935 10937 10939 10941 10943 10946 10950 10953 10955 10957 10959 10960 10962 10964 10965 10967 10969 10971 10973 10975 10976 10977 10978 10979 10979 10980 10980 10981 10982 10982 10983 10984 10984 10984 10985 10986 10988 10990 10992 10994 10996 10997 10998 10999 11000 11000 11001 11002 11002 11002 11001 11000
10794 10799 10805 10810 10816 10822 10827 10833 10838 10843 10847 10851 10854 10858 10862 10866 10870 10875 10878 10882 10885 10888 10891 10894 10897 10900 10903 10906 10909 10913 10916 10919 10922 10925 10927 10929 10931 10933 10937 10940 10943 10946 10949 10950 10952 10954 10956 10958 10960 10961 10963 10965 10967 10968 10970 10971 10972 10972 10973 10973 10973 10974 10974 10975 10976 10976 10976 10978 10979 10981 10982 10984 10985 10987 10988 10990 10991 10993 10994 10995 10995 10996 10996 10996 10995
10782 10786 10791 10796 10801 10806 10812 10817 10822 10826 10831 10835 10840 10844 10848 10852 10856 10861 10865 10869 10873 10876 10880 10883 10887 10889 10892 10895 10898 10901 10905 10908 10911 10914 10916 10918 10920 10923 10926 10930 10933 10936 10940 10942 10944 10945 10947 10950 10952 10953 10955 10956 10958 10959 10960 10962 10963 10963 10964 10964 10965 10965 10965 10966 10967 10967 10968 10970 10971 10972 10974 10975 10977 10978 10979 10981 10982 10984 10985 10986 10987 10988 10989 10990 10990
10767 10772 10778 10785 10790 10794 10799 10804 10807 10811 10817 10821 10826 10830 10834 10838 10842 10846 10851 10856 10861 10865 10868 10872 10876 10879 10882 10885 10887 10890 10893 10896 10900 10903 10905 10907 10909 10912 10915 10919 10922 10925 10929 10932 10934 10936 10938 10941 10943 10944 10946 10947 10948 10949 10950 10951 10953 10954 10954 10955 10956 10956 10957 10957 10957 10958 10959 10961 10962 10963 10965 10966 10968 10969 10970 10972 10973 10974 10976 10977 10978 10979 10980 10981 10982
10749 10756 10764 10772 10776 10780 10785 10789 10794 10799 10804 10808 10812 10817 10821 10825 10829 10833 10837 10842 10847 10852 10857 10860 10864 10868 10871 10874 10876 10879 10882 10884 10888 10891 10893 10896 10898 10900 10903 10907 10911 10915 10918 10921 10923 10926 10928 10930 10933 10934 10936 10937 10938 10939 10940 10941 10942 10943 10944 10945 10946 10947 10947 10948 10948 10948 10949 10951 10952 10954 10955 10957 10958 10960 10961 10962 10964 10965 10966 10967 10968 10969 10970 10971 10973
10732 10741 10748 10754 10759 10763 10767 10772 10778 10784 10789 10794 10799 10803 10807 10812 10816 10821 10825 10829 10834 10839 10843 10847 10852 10855 10859 10862 10865 10867 10870 10873 10876 10879 10882 10884 10886 10889 10892 10896 10900 10903 10907 10909 10912 10914 10916 10919 10921 10923 10925 10926 10928 10929 10929 10930 10931 10932 10932 10933 10935 10936 10937 10937 10938 10938 10939 10940 10941 10943 10944 10946 10948 10949 10951 10952 10953 10954 10956 10957 10958 10959 10960 10961 10962
10721 10726 10730 10734 10739 10744 10749 10755 10762 10769 10774 10779 10784 10789 10794 10799 10803 10808 10812 10817 10821 10825 10829 10833 10838 10842 10845 10849 10852 10855 10858 10861 10864 10867 10870 10872 10875 10877 10880 10884 10888 10891 10895 10898 10900 10902 10904 10907 10909 10911 10913 10915 10916 10917 10918 10919 10920 10920 10921 10922 10923 10924 10925 10926 10926 10927 10928 10930 10930 10931 10933 10934 10936 10938 10939 10941 10942 10943 10944 10946 10947 10949 10950 10951 10952